Wind_Speed
17 18 18 19 21 24 26 27 28 29 29 29 29 28 28 27 27 28 29 29 27 27 26 25 24 24 24 24 25 27 28 29 28 25 24 22 23 24 23 22 21 21 20 19 19 19 17 16 15 15 16 16 16 15 13 12 11 10 9 7 6 8 9 10 11 13 15 14 13 12 10 10 10 11 11 12 13 13 12 11 11 11 12 13 14 14
15 15 16 19 22 24 26 26 27 28 28 29 29 28 28 27 27 28 29 29 28 27 25 24 24 24 25 25 26 27 28 27 25 22 20 20 22 23 23 22 22 22 20 18 17 16 15 14 13 14 15 15 15 14 13 12 11 11 10 9 8 9 10 11 12 14 14 14 13 12 11 11 11 11 12 12 13 13 13 13 12 12 13 13 13 14
15 17 19 22 22 22 23 24 25 27 28 28 28 27 27 27 27 28 29 29 27 25 23 22 23 24 24 24 24 25 25 24 20 19 19 20 21 23 23 23 23 21 18 16 15 13 12 12 12 14 15 14 14 13 13 13 13 13 12 11 11 12 12 12 13 14 15 14 14 13 12 12 12 12 12 13 14 14 14 13 13 12 13 13 13 13
17 19 21 21 21 21 21 22 24 25 26 26 26 26 26 26 26 27 28 27 25 23 21 20 20 22 22 22 22 22 22 20 18 19 21 22 23 24 24 24 22 20 18 16 13 10 9 10 11 13 14 13 12 12 13 13 13 13 12 12 13 13 13 13 13 14 15 14 14 13 13 12 12 13 13 14 15 15 14 13 12 12 11 12 12 12
19 19 19 19 20 20 20 21 22 22 23 23 23 23 24 24 25 26 26 25 23 21 19 18 19 20 20 19 20 20 19 17 18 19 21 22 23 22 21 20 19 18 17 15 11 8 7 8 8 10 10 10 11 12 12 12 12 12 12 12 13 13 13 13 13 14 15 14 13 13 13 13 13 13 14 14 16 16 15 13 12 12 11 9 10 12
18 17 18 19 19 19 19 19 19 19 20 20 20 21 22 23 24 25 24 23 21 20 19 19 21 21 20 19 19 18 17 17 17 17 18 19 19 18 17 17 16 16 15 12 9 7 6 5 5 7 7 6 8 9 9 9 10 11 12 12 12 12 13 13 13 14 15 14 13 13 13 13 13 13 14 14 15 16 15 14 13 13 12 10 10 13
17 17 18 18 18 18 18 18 18 17 17 18 18 19 21 22 23 24 24 22 21 20 20 21 22 22 22 21 20 19 18 18 18 17 18 19 18 17 16 16 16 14 12 9 7 6 5 4 4 7 8 6 6 7 8 8 10 10 11 11 11 12 13 13 13 14 15 15 14 13 14 15 15 14 14 14 14 15 15 15 15 15 15 14 15 17
17 17 17 17 17 17 17 16 16 16 16 16 17 18 20 21 22 23 23 22 21 21 22 23 24 24 24 23 21 20 20 20 20 20 21 20 18 17 15 14 13 12 10 8 7 6 5 5 6 9 9 7 6 7 8 9 9 10 11 11 11 11 12 13 14 16 17 16 15 14 15 16 16 16 16 14 13 14 15 16 17 17 18 19 21 22
18 18 17 17 17 17 16 16 16 17 17 17 18 19 20 21 22 23 23 23 22 22 24 25 25 25 25 24 22 22 22 23 23 23 22 20 18 16 14 12 11 11 10 9 9 8 8 8 10 11 11 10 9 9 10 11 11 11 11 11 11 12 13 14 15 16 17 17 16 16 17 18 18 18 18 17 15 15 16 17 18 19 21 23 24 25
19 19 18 18 18 17 16 17 17 17 18 18 19 20 20 22 23 23 24 24 24 24 25 27 27 27 26 25 24 24 25 25 25 25 23 20 18 16 13 11 10 11 11 12 12 12 12 12 13 14 14 12 12 11 12 13 13 13 13 12 12 12 14 15 16 17 17 17 17 17 19 20 21 21 21 20 19 19 18 19 20 21 22 24 25 25
20 19 19 19 18 17 17 17 18 18 19 19 20 20 21 22 23 24 24 25 25 26 27 28 28 28 28 27 27 26 27 27 26 25 23 20 17 14 12 11 11 13 13 14 15 16 16 15 16 17 18 16 14 13 13 14 14 14 14 14 14 14 15 16 17 17 18 18 19 20 21 22 23 23 23 22 22 22 22 22 22 23 23 25 26 27
20 20 19 19 18 17 17 17 18 18 19 19 19 20 21 22 23 24 25 26 27 27 27 28 29 29 29 29 29 28 28 28 27 25 22 19 16 14 13 13 14 15 15 16 17 19 20 19 19 20 22 21 18 16 16 15 16 17 17 16 16 17 17 18 19 19 20 21 22 22 23 23 23 24 24 24 23 24 24 24 24 23 23 23 24 26
20 20 20 20 19 19 18 19 19 19 19 19 19 20 21 22 23 24 26 27 28 28 28 29 29 30 30 30 30 29 29 29 28 26 23 20 18 17 16 16 16 16 16 17 18 20 21 22 22 23 25 25 22 20 18 18 18 20 20 18 18 19 20 21 21 22 23 24 24 25 24 23 23 24 25 25 24 24 25 25 25 23 20 19 21 23
22 22 22 21 21 21 20 20 20 19 19 18 18 19 20 22 23 25 26 27 28 28 29 30 31 31 31 31 31 31 30 30 29 27 25 23 21 20 19 19 18 18 18 18 19 20 22 23 24 25 27 28 27 24 22 20 21 22 21 20 21 22 22 22 23 24 24 24 24 23 21 19 20 22 23 24 24 24 25 26 26 23 20 18 19 21
25 25 24 23 23 22 22 21 20 20 20 20 20 21 21 23 24 25 26 27 27 28 30 31 33 33 33 32 32 32 31 30 29 28 27 25 23 22 22 22 22 22 22 22 22 22 23 26 28 29 32 33 31 28 24 22 24 24 22 22 23 23 22 21 22 22 22 22 21 20 19 19 19 21 22 22 23 22 22 22 23 23 22 19 19 20
26 26 26 25 25 24 23 22 22 22 22 23 23 23 23 23 24 26 27 27 28 28 29 31 34 35 33 32 32 32 32 31 31 30 29 28 26 26 26 26 26 26 27 28 27 28 28 30 32 32 33 33 30 26 23 23 25 25 23 24 24 22 21 19 18 19 21 21 20 20 21 21 21 23 23 21 20 20 19 20 20 21 21 19 18 18
25 26 27 27 27 27 26 25 25 25 24 25 25 24 23 23 24 25 27 28 28 29 29 30 32 34 34 33 33 33 33 32 32 31 31 31 30 31 31 30 30 30 31 31 31 32 32 34 35 33 31 31 31 24 20 23 26 27 24 24 24 21 20 18 18 20 22 22 22 22 23 23 23 24 22 19 19 19 20 21 20 18 19 19 18 18
25 25 27 28 29 29 28 27 27 27 26 26 26 24 23 24 25 25 25 26 28 28 29 28 29 31 32 33 34 34 34 34 34 34 35 35 35 34 33 32 31 31 30 29 30 33 34 36 37 35 31 32 34 26 23 23 25 26 25 24 24 22 19 19 19 20 19 18 17 18 20 20 19 19 17 16 17 19 20 20 19 18 19 20 20 20
26 25 25 27 27 28 29 28 29 29 28 27 26 24 24 24 24 24 23 24 25 26 27 28 28 29 30 31 32 32 32 33 34 34 35 35 33 32 31 30 30 29 27 26 28 33 35 33 34 36 34 34 36 30 23 21 23 24 24 24 25 24 21 20 19 18 18 17 16 15 15 15 15 15 15 15 16 18 19 19 19 18 19 21 23 24
26 25 25 25 26 27 29 30 30 30 28 27 26 25 25 25 23 23 22 22 23 23 25 26 27 27 28 28 27 26 26 27 28 28 29 29 29 29 28 27 27 26 26 27 29 33 35 32 30 33 34 35 36 31 24 21 21 22 24 24 24 24 23 21 19 17 17 16 15 13 14 14 13 14 14 13 14 17 18 17 18 18 18 18 22 24
28 26 26 26 26 27 29 31 31 31 29 28 27 25 25 24 23 24 24 23 23 24 25 25 26 26 25 24 23 22 21 22 22 23 24 25 26 27 26 24 24 25 26 28 30 33 35 34 31 31 33 35 35 34 29 26 23 22 22 23 23 23 22 20 19 17 16 15 14 14 14 13 12 12 12 12 12 14 16 16 17 17 17 15 14 15
30 29 27 27 28 28 29 30 31 32 31 29 28 26 24 24 23 23 24 24 25 25 25 25 25 24 22 22 22 21 20 19 19 20 21 22 24 24 22 21 22 24 27 29 29 31 33 35 33 32 33 33 30 30 31 29 26 24 24 24 23 22 21 19 18 17 16 16 16 16 15 13 11 11 12 12 11 13 15 16 16 16 17 16 13 11
32 29 27 27 28 28 29 30 30 31 31 29 28 27 27 26 25 24 24 25 25 25 25 24 23 23 21 21 21 19 18 17 16 17 18 20 22 22 21 20 22 25 29 30 29 31 33 34 33 33 32 28 23 22 24 25 25 24 25 25 23 22 20 18 17 17 17 16 16 15 14 14 13 12 12 13 14 14 14 15 15 14 15 15 14 13
33 32 29 28 28 28 29 29 30 31 31 29 28 28 27 28 27 26 24 24 24 25 24 24 23 22 21 20 19 18 16 15 15 15 17 18 20 21 21 21 23 25 28 29 28 29 30 29 29 28 24 22 19 18 18 20 21 22 24 23 22 21 19 18 19 19 19 18 17 16 16 16 15 14 13 14 15 16 16 15 14 14 13 13 13 14
32 33 32 31 29 29 30 31 31 31 31 29 28 28 27 27 26 26 25 24 25 26 25 25 24 22 21 20 19 18 17 16 16 16 17 17 18 19 19 20 21 23 25 26 26 27 26 24 23 22 18 17 17 17 16 17 20 22 23 22 21 20 20 20 21 21 21 20 19 18 17 18 18 16 14 13 14 16 17 16 16 16 16 16 16 16
30 32 33 32 31 30 30 29 29 29 30 29 28 28 28 27 27 27 26 26 26 26 26 26 25 23 21 21 21 20 19 18 17 17 18 18 19 19 20 20 20 21 22 23 24 24 24 23 21 20 17 16 16 16 15 15 17 19 21 22 22 22 22 22 22 21 21 20 20 19 19 20 19 18 16 14 14 15 17 18 18 18 18 18 18 19
28 31 33 32 32 32 31 29 27 28 29 29 29 29 28 29 29 29 29 29 28 27 28 28 26 24 23 23 23 22 21 20 18 18 19 19 20 20 21 21 21 21 20 21 21 22 22 22 21 20 19 18 17 18 18 18 17 18 20 22 23 23 23 23 22 22 21 21 21 21 21 21 21 19 18 17 16 16 17 18 18 19 19 19 20 20
26 30 32 34 35 35 35 34 33 32 32 32 32 31 31 31 31 31 31 31 29 29 29 29 28 27 26 26 26 25 23 22 21 20 20 21 21 21 22 23 22 22 21 21 22 23 23 22 23 23 22 21 21 21 21 21 21 21 22 23 24 24 24 24 24 23 24 24 24 24 24 24 25 24 22 22 21 20 20 20 21 22 23 24 25 24
26 26 27 31 36 38 38 37 37 37 36 36 35 35 34 34 33 33 33 33 32 31 31 31 31 30 29 28 28 27 26 24 23 22 22 22 22 23 23 24 24 24 23 24 24 24 24 24 24 24 24 24 23 23 23 23 24 24 24 25 26 26 26 26 26 26 26 27 27 27 27 28 29 30 30 30 29 27 26 26 27 28 29 30 30 29
27 26 23 24 30 34 37 39 40 40 39 38 38 38 37 37 36 36 36 36 35 34 34 34 34 33 32 31 29 29 28 27 26 25 25 25 25 24 24 25 26 26 26 26 27 26 26 26 26 26 27 27 26 27 27 27 28 28 28 28 28 28 29 29 29 30 30 30 30 30 31 31 32 33 35 36 35 34 33 32 32 32 33 33 33 32
28 28 27 25 26 27 29 32 35 36 36 36 38 40 40 41 40 40 40 39 39 38 37 36 36 36 36 35 33 32 31 30 29 28 28 28 28 27 27 27 28 29 30 30 30 30 30 30 30 30 30 31 31 31 32 33 33 33 33 32 32 32 32 32 33 33 33 34 34 34 34 35 35 36 37 38 39 39 38 37 36 35 35 34 34 34
30 29 29 29 30 29 27 26 26 27 28 29 31 34 37 40 42 42 42 42 41 40 39 38 38 39 39 39 38 37 35 33 32 31 31 31 32 32 31 31 31 32 32 33 33 33 33 33 33 34 35 35 36 37 37 37 38 37 37 36 35 36 36 37 37 37 37 38 38 38 38 38 39 39 40 40 41 42 42 41 40 39 37 36 36 36
31 30 29 30 32 33 32 31 28 27 26 26 26 27 29 32 36 38 39 41 42 42 42 41 40 41 42 41 41 40 38 36 34 34 33 33 33 34 34 33 33 33 33 33 34 35 35 36 36 37 38 39 40 40 41 41 42 41 40 40 39 40 40 41 41 40 41 41 41 40 40 40 41 42 43 43 43 44 44 43 43 43 41 39 38 38
30 30 30 30 31 32 33 33 32 31 30 28 26 26 26 27 28 30 31 32 34 36 38 40 40 41 42 43 42 41 39 37 35 35 35 35 35 35 35 35 35 34 34 35 36 37 39 40 41 42 42 43 44 44 45 45 45 44 44 44 43 44 44 44 44 44 44 43 42 42 42 42 42 43 43 44 44 44 44 44 44 44 44 42 41 40
30 30 30 31 30 30 31 32 33 33 31 29 28 29 29 29 30 30 29 29 28 29 30 31 33 34 37 38 39 38 37 35 35 35 35 35 35 36 37 37 37 37 39 40 41 42 44 44 45 44 44 44 45 46 47 47 48 48 48 47 47 47 47 46 46 46 46 45 45 45 44 43 42 41 41 42 42 43 44 44 45 45 44 43 42 42
31 31 32 33 33 32 32 31 31 32 31 31 31 31 31 32 32 32 32 31 30 30 30 30 30 30 32 33 34 35 35 34 34 35 36 37 38 39 40 41 42 43 44 45 46 47 47 48 48 48 47 47 48 49 51 51 52 52 52 51 51 50 49 49 49 48 48 47 47 48 47 46 45 44 43 43 43 43 43 44 45 45 45 44 43 43
33 33 33 34 35 34 33 32 30 29 30 31 31 31 31 31 32 32 32 32 32 32 33 33 33 32 33 33 34 35 36 37 37 38 39 41 42 43 45 45 46 47 47 48 49 49 50 51 52 52 53 53 54 55 56 56 56 56 55 55 54 53 52 51 51 51 51 50 50 50 50 49 49 48 48 46 45 44 44 44 45 46 45 44 44 44
31 32 34 35 35 34 34 35 34 33 32 31 31 32 32 32 33 34 34 34 34 34 34 33 33 34 34 35 36 37 38 40 41 42 43 44 45 46 46 47 48 48 49 50 51 51 52 53 54 55 56 57 58 58 59 59 59 59 58 58 57 57 56 56 55 55 55 54 53 51 50 50 49 50 49 48 46 44 43 43 43 44 44 43 43 43
32 32 32 34 36 36 37 38 38 38 37 36 36 36 35 35 35 35 36 36 36 36 36 35 34 34 33 34 35 36 37 39 41 43 44 45 45 46 47 48 49 50 51 52 53 54 55 56 57 58 59 60 61 61 61 61 62 62 62 61 61 61 60 60 59 58 57 56 55 53 52 51 50 49 49 49 47 44 43 42 41 41 41 40 40 41
37 35 33 35 36 37 38 39 39 39 40 39 37 36 35 35 35 36 37 37 35 35 35 35 35 34 34 34 34 35 36 38 40 42 44 45 46 48 49 50 51 52 52 53 54 56 57 58 59 60 61 62 63 63 64 64 64 65 65 65 65 64 64 63 62 61 59 57 56 56 55 54 53 51 50 50 49 47 46 44 43 42 42 41 41 40
38 37 37 36 35 33 34 35 35 36 38 38 37 36 36 36 36 37 37 36 35 35 35 36 36 36 36 36 36 36 37 38 40 42 43 45 46 48 49 51 52 53 54 55 56 57 58 59 60 61 63 64 65 65 66 66 66 66 67 67 66 66 65 64 63 62 60 59 58 57 56 56 55 54 53 53 52 51 51 48 45 43 43 42 42 42
37 38 39 40 39 36 36 36 36 37 39 39 39 39 39 39 39 39 37 37 37 37 37 38 38 39 39 39 40 40 41 42 42 43 44 46 47 49 50 51 52 54 55 56 57 58 59 60 61 62 63 64 65 65 66 66 66 66 66 66 66 66 66 65 63 62 61 60 59 59 58 56 56 55 55 55 55 55 55 54 51 47 44 42 41 40
39 39 39 41 43 43 44 44 44 43 43 42 42 42 42 42 42 40 39 39 39 39 39 40 40 40 41 42 42 43 44 44 45 46 47 48 49 50 51 52 53 55 55 56 57 57 58 59 60 61 62 63 64 65 65 66 66 66 66 66 66 66 66 65 65 64 63 62 61 60 59 58 57 56 55 55 56 56 57 57 57 56 53 50 48 45
40 40 41 41 42 44 45 46 46 46 45 45 44 44 44 44 43 43 43 42 42 42 42 42 43 43 44 44 45 46 46 47 48 49 49 50 51 52 53 53 54 55 55 55 55 56 56 57 57 58 59 60 61 63 64 66 66 66 66 66 66 67 67 67 66 66 65 64 63 62 61 59 59 58 57 56 56 56 57 58 58 58 57 56 55 54
38 39 40 40 41 42 43 43 43 43 43 44 44 44 44 44 43 43 43 43 44 44 44 44 45 45 45 46 46 47 47 48 49 50 50 51 52 52 52 53 53 53 53 53 53 53 53 53 54 54 55 56 58 60 62 64 65 65 64 64 64 65 65 65 64 64 64 63 62 61 61 60 59 58 58 57 57 56 56 56 56 56 55 53 52 52
34 35 37 37 38 39 40 41 40 40 41 41 42 42 42 42 42 42 43 43 43 43 43 44 44 44 44 45 45 45 46 46 47 48 49 49 50 50 50 50 50 50 50 50 51 52 53 53 54 55 56 58 60 61 62 63 63 64 63 64 64 64 64 64 64 63 63 62 62 61 60 59 58 57 57 57 57 57 57 56 54 53 50 48 49 51
30 32 33 34 35 35 36 37 38 38 39 39 40 39 39 40 40 40 40 40 40 40 41 41 41 41 41 41 42 42 43 43 44 45 46 47 48 48 49 49 49 50 50 51 53 54 56 57 58 59 60 61 62 62 62 63 63 63 64 64 65 66 66 66 66 65 65 65 65 64 63 62 60 59 58 58 57 57 58 58 56 52 49 49 51 52
26 27 28 30 31 32 33 34 35 35 36 37 37 37 37 37 36 36 36 35 35 36 37 38 38 39 39 39 40 41 41 42 43 44 45 47 48 49 50 50 51 52 53 56 58 60 61 62 62 62 62 61 61 61 61 62 62 63 63 64 64 65 66 67 67 67 67 67 67 67 67 66 65 63 62 61 60 59 59 59 59 57 55 55 56 55
22 23 24 25 26 28 29 30 30 31 32 33 33 34 35 35 36 36 35 34 33 33 34 35 36 37 38 39 40 41 42 44 45 46 47 48 49 50 51 52 54 56 58 60 62 63 63 63 62 61 61 60 60 59 60 60 61 62 63 63 64 64 65 65 66 66 66 66 67 67 67 67 67 67 66 64 63 61 61 60 60 60 60 59 57 56
17 18 20 21 22 24 25 26 27 28 29 30 30 31 32 33 34 35 37 37 38 38 38 39 39 40 41 42 44 45 46 47 48 49 50 52 53 54 55 56 58 59 60 60 60 59 59 59 58 58 58 58 58 58 59 60 60 61 62 63 64 65 65 66 66 67 67 67 67 67 67 68 67 67 67 66 65 63 61 60 60 61 61 61 58 56
13 14 15 17 18 19 20 21 22 23 24 25 25 26 27 28 29 30 32 34 36 38 40 41 43 44 45 46 47 48 49 50 51 51 52 53 54 54 54 55 55 55 55 55 54 54 55 55 55 54 55 55 55 55 54 55 55 56 56 56 57 59 60 61 63 64 65 66 67 68 68 69 69 68 68 68 67 65 63 62 61 59 59 60 60 60
Wind_Direction
227 225 224 225 224 223 223 221 221 222 222 224 225 226 228 228 228 231 235 238 238 239 241 243 246 248 248 246 245 246 246 247 247 244 241 241 241 242 238 234 232 233 237 244 252 259 262 264 265 266 266 257 246 238 233 234 238 239 241 243 249 258 263 266 266 268 270 273 275 275 276 281 285 287 284 282 282 281 277 273 269 266 266 268 268 267
225 221 218 220 221 222 224 225 225 226 226 226 227 227 228 228 228 231 235 239 239 240 242 244 246 247 246 244 242 242 243 243 243 241 237 234 233 233 230 227 229 232 236 240 246 252 255 258 259 258 257 252 241 233 228 228 232 235 237 238 247 258 262 264 267 271 274 277 278 280 284 289 290 288 283 278 276 274 271 266 261 257 256 257 260 263
219 215 215 217 218 219 223 226 227 229 230 230 231 230 230 229 230 233 237 240 241 242 244 245 245 245 243 241 238 237 237 237 235 229 221 219 222 225 226 227 228 231 233 235 237 242 248 251 251 248 247 247 241 231 225 225 230 233 237 244 252 260 261 260 264 271 275 278 280 284 289 294 296 291 284 280 276 273 270 266 261 257 255 254 254 258
220 220 220 220 219 219 221 224 227 230 232 233 233 232 232 231 232 235 238 241 242 242 241 239 238 238 236 233 231 231 232 231 228 223 217 214 218 222 225 226 228 231 233 233 230 229 237 241 243 245 244 243 239 233 229 230 236 241 246 253 257 260 259 257 262 270 274 277 280 284 289 293 293 288 284 280 276 273 270 264 258 256 256 259 261 261
226 227 226 224 221 221 222 224 227 230 233 235 235 234 233 231 232 235 239 240 240 238 234 228 226 228 227 226 226 227 228 227 224 224 224 222 223 226 228 231 233 234 232 229 220 213 222 229 240 253 255 248 237 231 232 235 239 245 250 253 255 254 254 255 261 269 272 275 278 282 286 289 288 286 285 281 274 271 270 264 256 251 249 260 275 279
233 231 229 228 226 225 225 225 227 230 234 236 236 234 231 229 229 232 236 238 236 233 227 219 217 220 222 220 221 223 223 224 225 225 224 223 224 226 230 232 231 228 226 220 208 201 209 217 252 278 281 269 244 228 226 231 234 238 242 244 245 246 249 253 259 265 268 270 274 279 283 285 284 283 285 283 273 265 265 264 258 253 245 251 279 294
236 234 232 231 230 228 228 227 225 226 230 233 232 229 227 226 226 229 233 234 231 226 221 216 214 217 221 219 219 220 219 220 221 218 215 216 219 223 226 228 226 222 221 218 207 203 210 223 274 298 296 283 258 237 228 231 235 238 238 238 239 241 246 251 255 259 263 266 270 274 277 278 278 279 282 285 275 263 261 263 263 262 256 257 274 291
237 236 234 233 231 229 228 227 225 224 226 228 226 225 226 227 225 227 230 231 228 223 219 217 215 216 222 222 220 219 218 217 216 212 212 215 219 224 226 227 228 230 233 237 233 227 233 251 277 297 297 284 264 249 238 238 241 244 242 238 237 240 244 248 252 255 260 263 265 266 269 270 272 273 275 279 278 268 264 265 267 270 270 271 277 286
235 236 235 233 231 228 227 227 226 225 224 224 225 225 227 227 225 226 228 228 228 224 220 219 218 218 222 224 221 219 218 216 214 213 214 218 222 224 225 227 235 245 252 258 261 255 254 266 277 286 291 284 268 253 241 238 240 243 243 238 236 239 243 247 250 253 256 259 260 261 264 267 268 269 271 273 274 271 269 270 272 274 277 279 282 285
234 235 235 234 231 228 226 227 228 228 225 225 227 227 226 226 226 226 226 226 227 225 222 222 221 220 222 225 224 222 222 220 219 219 222 225 224 222 225 233 245 258 266 271 273 269 264 269 277 280 283 281 273 262 248 238 237 237 235 231 230 232 237 243 246 249 251 254 256 258 262 266 269 271 274 276 275 273 271 271 274 276 279 281 283 284
238 237 236 235 233 231 229 228 230 230 228 228 230 230 229 229 229 229 227 227 226 226 225 225 226 225 225 227 227 224 224 225 227 228 230 231 230 229 233 243 255 265 271 272 272 272 271 272 276 279 280 277 271 267 257 240 232 231 230 229 229 230 234 239 243 247 250 253 256 259 261 265 269 273 276 278 279 277 273 272 273 276 279 281 282 282
242 242 240 238 237 235 234 233 234 234 233 234 235 234 233 233 233 233 231 231 229 227 227 228 230 231 229 230 230 227 227 229 232 235 237 237 237 239 246 255 263 268 269 267 266 270 273 273 275 277 277 274 269 265 258 244 232 230 232 233 233 234 237 240 244 247 250 253 257 259 262 265 269 272 273 276 277 276 275 274 275 279 283 283 279 276
245 245 243 241 240 239 237 237 237 236 236 236 237 237 236 236 237 237 235 235 234 231 229 230 231 232 232 233 233 231 232 234 235 238 241 242 242 243 247 256 263 266 266 265 265 268 270 273 275 274 273 272 269 264 259 250 239 233 233 233 235 238 240 243 246 249 251 254 257 259 263 267 270 271 272 273 274 274 274 273 274 281 285 281 272 267
242 241 239 239 239 238 238 239 240 242 243 242 243 242 241 241 241 241 240 240 240 236 232 231 231 231 232 235 236 235 235 237 238 240 242 244 246 247 250 257 260 263 267 269 267 265 267 270 268 266 265 263 261 259 258 254 245 237 232 232 236 240 242 244 247 250 253 255 259 263 266 269 269 271 274 274 272 272 271 271 271 274 276 274 267 263
235 236 236 237 238 239 240 240 241 243 244 244 244 243 242 243 243 245 245 245 245 241 237 234 233 233 232 234 237 239 239 240 240 242 243 244 245 247 251 259 263 266 270 272 269 264 263 263 261 259 254 248 242 241 246 249 245 239 232 232 239 244 246 248 250 253 257 259 263 266 265 266 268 273 278 275 270 267 266 266 267 267 268 268 264 262
234 235 237 238 238 239 239 240 240 240 242 243 244 245 245 246 247 247 248 247 246 244 240 236 235 236 235 234 237 240 242 243 244 245 247 248 248 249 252 258 262 265 268 270 268 265 264 262 262 264 256 239 222 218 233 244 243 238 233 233 240 246 247 250 254 255 257 259 260 262 264 268 274 280 284 279 268 262 262 264 264 265 266 263 259 263
236 235 235 236 237 237 236 237 240 240 241 243 246 248 249 250 249 246 246 246 246 245 243 240 238 238 237 235 236 238 240 243 245 247 250 252 254 256 257 260 261 262 266 267 265 265 265 263 261 263 259 236 212 215 246 253 244 238 235 236 243 250 253 253 254 253 254 258 260 263 270 275 279 284 286 280 268 263 264 264 265 267 266 263 262 265
234 232 233 233 234 236 235 235 238 239 238 239 244 247 247 247 247 244 243 244 244 243 243 242 240 239 239 238 238 238 239 242 244 247 251 254 257 259 260 261 262 263 263 260 259 261 262 261 256 253 252 234 221 237 264 254 239 236 234 236 244 253 258 254 251 252 256 267 274 275 279 282 287 290 289 282 270 261 259 260 262 266 267 266 266 265
232 231 232 232 230 231 233 232 233 236 237 238 241 243 242 243 245 245 245 246 246 245 244 242 241 240 240 240 241 242 242 243 246 248 252 255 258 260 261 261 261 261 257 249 250 255 258 258 253 247 247 239 233 244 254 239 233 233 230 234 242 249 255 253 250 252 257 272 287 291 292 294 300 300 295 291 274 259 256 257 257 263 271 271 267 263
232 230 231 233 230 229 231 231 230 233 237 239 240 240 240 240 242 245 246 247 248 248 247 246 244 244 244 244 245 246 246 247 249 251 255 258 260 261 261 260 258 255 249 242 244 250 254 256 253 249 249 247 241 241 243 242 243 237 232 236 240 245 250 250 251 256 262 275 291 300 303 303 301 298 297 297 282 263 261 261 259 267 280 281 270 259
233 232 232 234 234 231 231 232 232 232 234 239 241 241 241 241 241 244 245 245 247 248 249 249 249 249 250 251 251 252 252 254 256 257 259 259 259 259 257 254 252 249 245 242 243 247 251 251 251 251 252 252 247 245 248 252 250 242 237 237 238 240 243 246 252 259 267 281 293 301 304 302 297 296 295 293 281 266 264 266 266 270 279 282 273 258
234 235 234 236 237 235 234 234 234 234 234 237 241 243 242 242 242 245 247 247 247 248 249 250 252 253 254 255 256 257 258 258 257 257 257 256 254 253 250 247 245 242 238 237 241 245 248 248 250 254 254 254 253 251 249 247 244 239 236 235 234 235 238 247 256 260 265 277 292 299 299 293 287 290 291 284 274 268 270 275 275 274 274 273 269 259
235 236 234 235 237 236 234 233 232 233 234 235 238 240 240 241 242 244 247 248 248 248 249 250 252 253 253 255 257 257 257 254 252 252 253 254 252 248 243 238 235 232 231 233 238 243 247 249 251 254 255 255 256 252 246 243 239 237 235 233 233 234 238 247 255 260 265 274 286 291 287 280 275 275 278 275 271 270 271 275 280 279 271 264 260 254
235 235 232 234 237 237 235 233 232 233 234 233 235 237 239 241 243 245 246 247 248 248 248 249 250 250 251 253 255 253 251 248 249 251 250 250 250 247 243 239 236 233 233 236 239 242 248 251 250 252 253 252 249 246 244 242 239 238 237 235 235 236 241 249 257 264 268 273 277 277 272 269 267 264 266 268 271 272 270 272 280 281 273 263 258 254
236 235 233 234 237 238 237 235 234 234 234 234 235 236 238 240 242 245 245 245 246 247 247 247 247 247 248 249 250 250 251 252 251 248 245 244 245 245 245 245 243 241 241 242 243 246 251 256 254 252 251 247 243 243 244 242 238 235 235 235 236 240 247 255 262 266 270 273 274 269 263 260 259 260 263 266 270 273 271 271 276 278 276 273 270 268
238 237 236 238 241 242 243 243 241 240 239 239 239 239 239 240 241 243 244 245 246 247 248 248 246 246 246 246 247 248 253 256 253 244 239 240 242 243 245 246 246 246 246 247 248 249 252 255 255 253 250 248 249 251 254 251 243 237 236 237 241 246 252 257 262 265 269 272 271 267 259 254 253 256 260 265 271 274 273 271 271 272 273 274 277 279
244 243 240 239 241 241 243 243 242 242 243 243 242 241 241 241 241 241 242 244 246 247 247 247 245 244 243 243 244 247 252 256 251 242 237 237 239 241 244 246 247 247 247 247 246 247 248 250 252 252 251 253 254 255 256 255 251 246 243 243 245 250 253 256 259 262 267 270 271 268 260 252 250 252 256 263 270 274 274 270 267 267 270 275 280 284
254 253 247 242 240 237 236 237 238 237 238 239 239 238 237 238 239 240 240 241 243 243 243 244 245 245 244 243 242 245 249 252 251 246 241 238 238 241 244 246 246 246 247 248 248 248 250 253 254 254 254 255 254 253 252 252 252 251 249 249 250 252 254 257 260 263 266 269 271 270 265 258 254 254 258 266 271 272 270 267 265 266 270 275 278 281
253 258 257 252 247 241 237 238 239 239 238 239 239 239 238 238 238 238 239 240 241 242 243 245 246 247 245 244 243 244 246 248 250 249 246 243 243 244 245 245 245 247 250 253 255 256 257 258 258 257 257 257 256 255 254 254 255 255 254 253 253 254 255 258 261 263 266 268 269 270 270 267 263 261 263 268 271 272 270 268 267 268 269 272 275 276
249 253 255 254 252 247 241 239 240 240 240 241 242 242 241 241 241 240 240 239 239 240 243 246 248 248 247 245 243 243 244 246 247 248 248 248 248 248 249 248 249 251 255 257 259 260 260 260 260 260 260 261 260 260 259 259 259 258 258 257 257 257 258 259 262 264 266 267 267 268 269 268 267 266 266 267 270 272 273 271 270 269 269 269 270 272
250 251 249 248 251 252 248 244 243 242 243 244 245 246 245 242 241 241 241 241 241 240 241 245 248 249 250 248 246 243 242 244 246 247 248 249 251 253 254 253 253 254 257 259 259 260 260 260 260 260 261 261 262 263 263 263 262 261 261 262 262 262 262 263 264 266 267 268 268 268 268 268 267 266 265 266 268 270 272 272 271 270 269 267 266 268
259 257 254 252 252 255 255 253 250 248 247 247 249 251 251 247 243 241 241 242 242 241 242 244 246 248 248 248 247 245 243 242 243 246 248 251 253 255 256 256 255 256 257 259 260 260 259 258 259 260 261 262 263 263 263 264 264 264 265 265 266 266 266 266 267 267 268 269 269 269 269 268 267 265 264 263 264 266 268 269 269 269 267 266 265 265
263 262 259 256 255 257 258 258 257 254 250 248 248 250 253 252 248 244 242 243 244 245 246 246 246 247 247 246 244 243 241 240 241 244 248 251 254 256 258 258 259 259 260 261 260 260 259 259 260 261 261 262 263 264 264 265 266 267 267 268 268 269 270 270 270 271 271 271 271 271 271 270 269 266 264 262 262 262 264 265 265 266 265 265 263 262
261 261 259 257 255 256 257 257 258 256 253 251 250 248 249 249 248 245 244 243 243 244 245 246 246 246 244 242 239 238 238 239 240 243 246 249 252 255 257 258 259 258 257 257 257 258 260 261 263 264 264 265 265 265 266 266 267 268 269 270 270 271 272 272 273 273 273 273 273 272 273 272 270 267 264 263 262 262 262 263 263 263 264 263 262 261
258 258 259 259 259 257 255 253 253 254 255 254 252 250 250 250 249 249 250 249 249 248 247 248 248 246 244 241 239 238 238 240 242 245 247 250 251 252 253 253 253 253 253 255 257 259 261 263 265 266 267 267 267 267 267 267 268 270 270 271 272 272 273 273 273 274 273 272 272 273 273 272 269 266 264 264 264 263 263 263 263 263 263 262 261 260
259 259 261 263 263 262 260 257 255 255 255 255 254 253 253 253 253 254 254 255 257 257 256 255 254 252 250 249 247 246 246 245 246 247 248 248 249 249 250 251 252 254 255 257 259 260 262 263 264 264 264 264 265 266 268 268 270 270 271 271 272 272 272 272 272 272 271 271 272 272 272 270 267 264 264 265 265 264 263 263 262 262 261 260 260 259
260 260 261 262 264 266 266 265 262 258 255 254 254 253 253 255 257 258 259 260 260 260 260 259 257 256 254 252 252 251 250 248 248 247 247 248 250 251 252 254 255 257 258 258 259 261 262 263 263 264 264 265 266 267 268 269 270 270 270 271 271 271 271 271 271 271 271 271 271 270 270 268 266 265 265 264 263 262 263 262 261 260 259 258 258 258
259 258 258 259 261 262 264 264 264 263 260 257 256 256 255 257 258 260 262 264 264 264 265 263 261 259 257 255 253 251 250 249 248 248 249 250 252 252 254 255 257 258 259 260 261 262 263 264 265 265 266 267 267 268 269 269 270 270 270 270 270 270 270 270 270 270 270 270 270 269 267 265 265 265 264 262 261 261 261 260 259 259 258 257 256 256
256 256 256 256 255 256 258 261 262 264 263 261 260 260 259 260 260 260 260 261 262 266 268 268 266 263 260 257 254 252 250 249 249 250 250 251 252 253 254 255 257 258 259 260 261 262 263 264 265 265 266 267 267 268 269 269 270 271 271 271 271 271 271 270 270 270 269 269 268 267 266 266 265 264 262 260 259 258 257 258 259 259 259 258 257 256
253 254 255 257 256 256 257 259 259 261 262 261 261 261 260 260 260 259 260 261 262 263 264 264 264 263 261 259 256 253 251 249 250 250 251 251 252 253 254 254 255 257 258 259 260 261 262 263 264 265 265 266 267 268 268 269 270 270 271 271 271 271 271 271 270 270 269 268 267 266 266 266 266 263 261 260 258 255 254 256 258 259 259 259 257 256
252 252 253 255 256 254 252 252 253 256 258 259 260 260 259 260 260 261 263 264 263 261 260 259 259 260 260 260 258 256 254 253 252 252 251 252 252 253 254 255 256 256 257 258 259 260 261 262 263 264 265 265 266 267 267 268 269 269 270 270 271 271 271 270 270 270 269 268 267 266 265 265 264 263 261 259 258 255 254 256 258 259 259 259 257 255
252 250 249 250 250 249 248 249 251 254 255 257 259 261 261 262 263 264 264 263 262 260 259 258 258 259 259 259 259 258 258 258 257 257 256 256 256 256 257 257 257 258 258 259 259 260 261 262 263 264 264 265 265 266 266 267 267 268 268 269 269 270 270 270 269 269 269 268 268 267 266 264 263 262 261 259 258 256 254 255 256 256 256 256 255 254
251 250 249 248 248 249 250 253 255 256 257 259 260 262 263 264 265 265 264 263 262 260 259 259 259 259 259 260 260 260 260 261 261 261 261 261 261 261 261 261 261 261 261 262 262 262 262 263 263 264 265 265 266 266 266 266 266 267 267 267 267 268 268 268 268 268 267 267 267 266 266 265 263 262 260 259 258 257 256 255 256 256 255 254 253 254
251 250 250 250 249 250 251 254 255 256 257 259 261 262 263 264 264 264 264 263 262 261 261 260 260 260 260 260 260 261 261 262 262 263 263 263 263 263 263 263 264 264 264 265 265 265 265 265 266 266 267 268 268 268 267 267 266 266 266 266 266 266 266 266 266 266 266 265 265 264 264 263 263 262 261 259 259 258 257 256 256 257 256 256 256 257
251 251 252 252 252 253 254 255 256 257 257 258 259 261 261 262 263 263 263 263 263 263 262 262 262 261 261 261 261 261 261 261 262 262 262 263 263 264 264 265 265 266 267 267 268 268 269 269 270 270 271 271 272 272 272 271 270 269 269 269 268 268 267 267 266 266 265 264 264 264 263 262 262 262 261 260 259 258 257 257 257 257 258 258 257 257
252 252 253 253 254 255 256 257 258 258 259 260 260 260 261 261 261 261 261 261 262 262 262 262 262 262 261 261 261 261 261 261 261 262 262 262 263 263 264 264 266 267 269 270 272 273 273 273 273 273 274 275 275 275 275 274 274 273 272 272 272 271 270 269 268 267 267 265 264 263 262 262 261 261 261 260 258 257 257 256 256 257 257 256 255 253
252 253 253 254 254 255 256 257 258 258 259 260 261 261 262 262 262 262 262 262 262 262 262 262 262 263 263 263 264 264 265 265 266 266 266 267 268 269 270 270 271 273 274 275 276 277 278 278 278 279 279 279 279 278 277 276 275 273 272 272 271 271 271 270 270 269 268 268 267 265 263 261 260 259 258 258 257 256 255 255 254 253 250 248 247 249
254 254 254 254 255 255 256 257 257 258 258 259 259 260 260 259 260 261 262 262 263 263 263 264 264 265 266 266 266 267 267 267 267 268 268 269 270 271 271 272 273 273 274 275 277 279 281 282 282 282 282 281 280 278 277 276 275 274 273 272 271 270 270 269 269 268 268 267 267 266 265 264 262 259 258 256 255 254 253 253 252 251 249 247 247 248
256 255 255 255 256 256 256 257 258 258 258 258 258 258 257 256 256 256 256 257 257 257 256 257 257 258 258 258 258 259 259 259 259 260 261 262 263 265 266 268 270 271 272 274 277 279 281 281 281 281 280 279 279 278 277 276 276 275 274 273 272 271 271 270 269 269 268 267 266 266 265 264 263 261 259 257 255 253 251 251 250 250 249 249 249 249
259 258 257 257 257 257 257 258 258 258 259 259 259 259 259 258 258 257 256 255 255 254 254 254 254 254 254 254 255 256 257 258 259 260 261 263 265 267 269 270 272 272 273 275 276 277 278 278 278 279 279 278 278 277 277 276 276 275 274 274 273 272 271 271 270 269 268 266 265 264 264 263 262 261 260 259 257 254 252 249 248 248 248 248 247 247
263 262 260 260 259 260 260 261 261 262 263 263 263 263 262 262 262 261 260 259 258 258 258 258 258 259 259 260 261 262 263 264 264 265 266 268 269 270 270 271 271 272 273 274 275 276 277 277 278 279 279 279 279 278 278 277 276 276 275 275 275 274 273 271 270 268 267 265 263 262 261 260 259 259 258 258 257 256 253 251 248 246 246 246 245 244
Height
5723 5724 5726 5727 5728 5729 5730 5731 5732 5734 5736 5737 5740 5742 5744 5746 5748 5749 5750 5752 5754 5755 5757 5759 5760 5761 5763 5764 5765 5765 5766 5767 5769 5772 5774 5775 5776 5777 5777 5778 5778 5779 5779 5781 5781 5781 5781 5781 5782 5782 5782 5782 5782 5782 5783 5784 5785 5786 5787 5788 5788 5789 5789 5789 5789 5789 5788 5788 5788 5788 5788 5788 5788 5789 5789 5789 5789 5789 5788 5788 5788 5788 5788 5788 5788 5788
5721 5722 5723 5724 5725 5726 5727 5729 5731 5732 5734 5736 5737 5740 5742 5744 5745 5746 5747 5749 5751 5753 5755 5756 5758 5758 5759 5760 5761 5762 5763 5764 5767 5769 5771 5772 5773 5774 5775 5775 5776 5776 5778 5779 5779 5779 5779 5779 5780 5780 5780 5780 5780 5781 5782 5783 5784 5784 5785 5786 5787 5787 5788 5788 5788 5787 5787 5787 5787 5786 5787 5787 5787 5787 5788 5788 5788 5787 5787 5786 5786 5786 5786 5786 5786 5786
5720 5720 5720 5721 5722 5724 5726 5727 5729 5730 5732 5734 5736 5738 5740 5741 5743 5744 5745 5747 5749 5751 5752 5754 5755 5755 5756 5757 5758 5760 5761 5762 5765 5766 5768 5769 5770 5771 5772 5773 5774 5775 5776 5777 5778 5777 5777 5778 5778 5778 5778 5778 5778 5779 5780 5781 5782 5783 5784 5785 5785 5786 5786 5786 5786 5786 5785 5785 5785 5785 5785 5785 5785 5785 5786 5786 5785 5785 5785 5785 5784 5784 5784 5783 5783 5783
5717 5717 5718 5719 5721 5722 5724 5725 5727 5728 5730 5732 5734 5736 5738 5739 5741 5741 5743 5745 5746 5748 5750 5751 5752 5753 5754 5755 5756 5758 5759 5761 5763 5764 5765 5767 5768 5769 5770 5771 5773 5774 5775 5775 5776 5776 5776 5776 5776 5776 5776 5776 5777 5778 5779 5779 5780 5781 5782 5783 5783 5784 5784 5784 5784 5784 5784 5784 5783 5783 5783 5783 5783 5783 5783 5783 5783 5783 5783 5783 5783 5783 5782 5782 5781 5781
5715 5716 5717 5718 5720 5721 5722 5724 5725 5727 5728 5730 5732 5735 5736 5737 5738 5739 5740 5742 5744 5746 5748 5749 5750 5751 5752 5753 5755 5756 5758 5760 5761 5763 5764 5765 5766 5767 5769 5770 5772 5772 5773 5774 5774 5774 5774 5774 5774 5774 5774 5775 5776 5776 5777 5778 5779 5779 5780 5780 5781 5781 5781 5782 5782 5782 5782 5782 5782 5782 5781 5781 5781 5781 5781 5781 5780 5780 5781 5781 5781 5781 5781 5781 5780 5780
5713 5715 5716 5717 5718 5719 5721 5722 5724 5725 5727 5728 5731 5733 5734 5735 5736 5737 5738 5740 5742 5744 5746 5748 5749 5750 5751 5752 5753 5755 5757 5759 5760 5761 5763 5764 5765 5766 5768 5770 5770 5770 5771 5772 5772 5773 5773 5773 5773 5773 5773 5774 5774 5775 5776 5777 5777 5777 5778 5778 5779 5779 5779 5780 5780 5781 5781 5781 5780 5780 5780 5780 5779 5779 5779 5779 5778 5778 5778 5778 5779 5779 5779 5779 5779 5778
5712 5713 5714 5715 5717 5718 5720 5721 5722 5724 5725 5727 5729 5730 5731 5732 5734 5735 5736 5738 5740 5742 5744 5746 5748 5749 5750 5751 5752 5754 5756 5757 5758 5760 5761 5762 5763 5765 5767 5768 5768 5769 5769 5770 5771 5771 5771 5772 5772 5771 5772 5773 5773 5774 5775 5775 5775 5776 5776 5776 5777 5777 5778 5778 5779 5779 5779 5779 5778 5778 5778 5778 5778 5777 5777 5777 5776 5776 5776 5776 5777 5777 5777 5777 5777 5776
5710 5711 5713 5714 5715 5717 5718 5720 5721 5722 5724 5725 5727 5728 5729 5731 5732 5734 5735 5737 5739 5741 5742 5744 5746 5747 5748 5750 5751 5753 5754 5756 5757 5759 5760 5761 5762 5763 5765 5766 5767 5767 5768 5768 5769 5770 5770 5770 5770 5770 5771 5771 5772 5772 5773 5774 5774 5774 5774 5775 5775 5776 5776 5776 5777 5777 5776 5776 5776 5776 5776 5776 5775 5775 5775 5775 5775 5774 5774 5774 5774 5775 5775 5775 5774 5774
5708 5709 5711 5712 5714 5715 5717 5718 5719 5721 5722 5724 5725 5726 5728 5729 5731 5732 5734 5735 5737 5739 5741 5742 5744 5746 5747 5748 5750 5752 5753 5754 5756 5757 5758 5760 5761 5762 5763 5764 5765 5765 5766 5767 5767 5768 5768 5768 5768 5769 5769 5770 5770 5771 5771 5772 5772 5772 5773 5773 5774 5774 5774 5774 5774 5774 5774 5774 5774 5774 5774 5773 5773 5773 5773 5773 5773 5773 5773 5772 5772 5772 5772 5772 5772 5772
5706 5707 5709 5710 5712 5713 5715 5716 5717 5719 5721 5722 5723 5725 5726 5727 5729 5731 5732 5734 5735 5737 5739 5740 5742 5744 5745 5747 5748 5750 5751 5753 5754 5755 5757 5758 5759 5760 5761 5762 5763 5764 5764 5765 5765 5766 5766 5766 5766 5767 5767 5768 5768 5769 5770 5770 5770 5771 5771 5771 5772 5772 5772 5772 5772 5772 5772 5772 5772 5772 5771 5771 5771 5771 5771 5771 5771 5771 5771 5771 5770 5770 5770 5770 5770 5769
5704 5706 5707 5708 5710 5711 5713 5714 5716 5717 5719 5720 5722 5723 5724 5726 5727 5729 5730 5732 5733 5735 5736 5738 5740 5742 5744 5745 5746 5748 5749 5751 5752 5754 5755 5757 5758 5758 5759 5760 5761 5762 5762 5763 5763 5763 5763 5764 5765 5765 5765 5766 5767 5767 5768 5768 5769 5769 5769 5770 5770 5770 5770 5770 5770 5770 5770 5770 5769 5769 5769 5769 5769 5769 5770 5770 5770 5770 5769 5769 5769 5768 5768 5768 5767 5767
5703 5704 5706 5707 5708 5710 5711 5713 5714 5716 5717 5719 5720 5721 5723 5724 5725 5727 5729 5730 5731 5733 5734 5736 5738 5740 5741 5742 5744 5745 5747 5748 5750 5751 5753 5754 5755 5756 5757 5758 5759 5759 5760 5760 5761 5761 5761 5762 5763 5763 5763 5763 5764 5765 5765 5766 5767 5767 5768 5768 5768 5768 5768 5768 5768 5767 5767 5767 5766 5766 5767 5767 5767 5768 5767 5768 5768 5767 5767 5767 5767 5767 5766 5766 5765 5764
5701 5703 5704 5705 5707 5708 5710 5711 5712 5713 5715 5717 5718 5720 5721 5722 5723 5725 5726 5727 5729 5731 5732 5734 5735 5737 5738 5740 5741 5743 5744 5746 5747 5749 5750 5752 5753 5754 5755 5756 5756 5757 5757 5757 5758 5759 5759 5760 5761 5761 5761 5761 5761 5762 5763 5764 5765 5765 5766 5766 5766 5766 5765 5765 5765 5764 5764 5764 5764 5764 5764 5765 5766 5765 5765 5765 5765 5765 5764 5764 5765 5764 5764 5763 5762 5762
5699 5700 5701 5703 5704 5706 5708 5709 5710 5712 5714 5715 5717 5718 5719 5720 5721 5722 5723 5725 5726 5728 5730 5732 5733 5734 5735 5737 5739 5740 5742 5743 5745 5746 5747 5749 5750 5751 5752 5753 5754 5754 5754 5755 5756 5757 5757 5757 5757 5757 5757 5756 5756 5757 5759 5761 5762 5763 5764 5764 5764 5763 5762 5762 5762 5762 5762 5762 5762 5762 5763 5764 5763 5762 5762 5762 5762 5762 5761 5761 5761 5762 5761 5760 5760 5760
5696 5697 5699 5701 5702 5704 5706 5707 5709 5711 5712 5713 5714 5715 5717 5718 5719 5720 5721 5722 5724 5726 5728 5729 5730 5731 5733 5735 5736 5737 5739 5740 5742 5743 5744 5746 5748 5749 5749 5750 5751 5751 5751 5752 5753 5754 5754 5753 5752 5751 5751 5749 5748 5749 5751 5755 5758 5760 5762 5762 5760 5759 5759 5760 5760 5760 5760 5761 5761 5761 5761 5761 5760 5759 5759 5759 5759 5759 5759 5758 5758 5758 5759 5758 5758 5758
5694 5696 5697 5699 5700 5702 5704 5706 5707 5708 5709 5711 5712 5713 5714 5715 5716 5718 5719 5720 5721 5722 5724 5726 5727 5728 5730 5733 5734 5735 5736 5737 5739 5740 5741 5743 5745 5746 5747 5748 5748 5748 5748 5749 5749 5749 5749 5748 5747 5748 5749 5749 5748 5746 5746 5750 5754 5756 5759 5758 5757 5757 5758 5758 5758 5759 5758 5758 5758 5758 5758 5758 5758 5758 5757 5757 5756 5756 5756 5755 5755 5756 5756 5756 5756 5756
5693 5694 5695 5696 5698 5700 5702 5703 5704 5706 5707 5708 5709 5711 5712 5713 5714 5715 5716 5717 5718 5719 5720 5722 5723 5725 5728 5730 5731 5733 5734 5735 5736 5737 5738 5740 5741 5742 5744 5745 5745 5746 5746 5745 5745 5745 5745 5745 5744 5745 5747 5750 5751 5747 5745 5747 5750 5754 5756 5755 5754 5756 5755 5754 5756 5756 5755 5755 5755 5756 5756 5756 5756 5756 5755 5754 5754 5754 5753 5753 5753 5754 5754 5754 5754 5754
5690 5692 5692 5694 5695 5697 5699 5701 5702 5703 5704 5706 5707 5709 5710 5710 5711 5712 5713 5714 5715 5716 5717 5719 5720 5722 5724 5726 5728 5730 5731 5733 5734 5735 5736 5736 5738 5739 5740 5741 5741 5741 5742 5742 5742 5741 5741 5741 5742 5743 5745 5747 5747 5746 5744 5746 5748 5751 5752 5752 5752 5751 5750 5751 5753 5752 5752 5752 5753 5753 5754 5754 5753 5753 5753 5752 5751 5751 5751 5751 5751 5752 5752 5752 5752 5752
5687 5688 5689 5691 5692 5694 5696 5698 5699 5700 5701 5703 5705 5706 5707 5708 5708 5709 5711 5711 5712 5714 5715 5716 5718 5719 5721 5723 5725 5727 5729 5730 5731 5732 5732 5733 5733 5734 5735 5736 5736 5737 5737 5737 5738 5736 5736 5739 5741 5742 5743 5744 5744 5744 5743 5744 5746 5748 5749 5748 5749 5747 5746 5748 5749 5749 5750 5750 5750 5751 5751 5751 5751 5751 5750 5750 5749 5748 5749 5749 5750 5749 5750 5750 5750 5750
5684 5686 5687 5688 5690 5691 5692 5694 5696 5697 5699 5700 5702 5703 5704 5705 5706 5707 5708 5709 5710 5711 5712 5713 5715 5716 5718 5720 5722 5724 5725 5726 5727 5728 5728 5729 5729 5729 5730 5731 5732 5732 5732 5733 5733 5732 5732 5735 5737 5739 5740 5740 5741 5741 5741 5742 5743 5744 5745 5745 5745 5745 5744 5745 5746 5747 5747 5748 5748 5748 5748 5748 5748 5748 5748 5747 5747 5747 5747 5747 5747 5747 5748 5748 5747 5747
5681 5683 5684 5685 5686 5688 5689 5691 5693 5695 5696 5697 5698 5700 5701 5702 5703 5704 5705 5706 5707 5708 5709 5710 5711 5713 5715 5717 5718 5720 5721 5722 5723 5723 5724 5724 5724 5724 5725 5726 5727 5728 5728 5728 5729 5729 5729 5730 5731 5733 5734 5735 5737 5738 5738 5739 5740 5741 5741 5742 5742 5742 5742 5742 5743 5744 5744 5745 5745 5745 5746 5746 5746 5746 5745 5745 5745 5745 5746 5746 5745 5745 5746 5746 5745 5745
5678 5680 5681 5682 5683 5685 5687 5688 5690 5691 5693 5694 5695 5697 5698 5699 5701 5701 5702 5703 5704 5705 5706 5707 5709 5710 5712 5714 5715 5716 5717 5718 5719 5720 5720 5720 5720 5721 5722 5722 5723 5724 5724 5724 5725 5726 5727 5727 5728 5729 5730 5731 5733 5734 5734 5735 5736 5737 5737 5738 5738 5739 5739 5739 5739 5740 5741 5742 5742 5743 5743 5744 5744 5744 5744 5743 5743 5743 5744 5744 5743 5743 5743 5744 5744 5744
5675 5677 5678 5679 5681 5682 5683 5685 5686 5687 5689 5691 5692 5693 5695 5696 5697 5698 5699 5700 5702 5703 5704 5705 5706 5708 5709 5711 5712 5713 5715 5715 5716 5717 5717 5717 5717 5718 5718 5719 5720 5721 5721 5722 5723 5724 5724 5725 5726 5726 5727 5728 5730 5730 5731 5732 5732 5733 5734 5735 5735 5736 5736 5736 5736 5737 5738 5739 5740 5740 5741 5742 5742 5743 5742 5742 5741 5742 5742 5742 5741 5741 5741 5742 5742 5743
5672 5673 5675 5676 5678 5679 5681 5682 5683 5684 5685 5687 5689 5690 5691 5693 5694 5695 5697 5698 5699 5700 5701 5703 5704 5705 5707 5708 5709 5711 5712 5713 5714 5714 5714 5714 5715 5715 5716 5717 5718 5719 5720 5721 5722 5723 5723 5723 5724 5724 5725 5726 5726 5727 5728 5729 5730 5731 5732 5732 5733 5733 5734 5733 5733 5734 5735 5736 5737 5738 5739 5739 5740 5740 5740 5740 5740 5740 5740 5740 5739 5739 5739 5739 5740 5740
5668 5669 5671 5673 5675 5676 5677 5678 5679 5680 5682 5684 5685 5687 5688 5690 5691 5692 5694 5695 5696 5697 5698 5700 5701 5702 5704 5705 5706 5708 5709 5710 5711 5712 5712 5712 5712 5713 5714 5715 5716 5717 5718 5719 5720 5721 5721 5721 5722 5722 5722 5723 5723 5724 5725 5726 5727 5728 5729 5729 5730 5731 5731 5731 5731 5732 5732 5734 5735 5735 5736 5736 5737 5737 5738 5738 5738 5738 5738 5738 5738 5738 5737 5737 5737 5737
5665 5666 5668 5670 5672 5673 5674 5675 5677 5678 5680 5681 5683 5684 5685 5687 5688 5689 5690 5691 5692 5694 5695 5696 5698 5700 5701 5702 5703 5705 5706 5707 5708 5709 5709 5710 5710 5711 5712 5712 5713 5714 5715 5716 5717 5718 5719 5719 5719 5719 5719 5720 5720 5721 5722 5723 5724 5725 5726 5727 5727 5728 5728 5729 5729 5729 5730 5731 5732 5732 5733 5734 5734 5734 5735 5735 5735 5735 5735 5736 5736 5736 5735 5735 5735 5734
5662 5663 5664 5666 5668 5670 5671 5673 5675 5676 5677 5678 5679 5681 5682 5683 5684 5685 5687 5688 5689 5691 5692 5693 5695 5697 5698 5699 5700 5702 5703 5704 5705 5706 5707 5707 5708 5709 5709 5710 5710 5711 5712 5713 5714 5715 5715 5716 5716 5716 5717 5717 5718 5719 5720 5721 5721 5722 5723 5724 5724 5725 5725 5726 5726 5727 5727 5728 5728 5729 5730 5731 5731 5731 5732 5732 5732 5733 5733 5733 5733 5734 5733 5733 5732 5732
5659 5659 5660 5662 5664 5665 5667 5669 5670 5671 5673 5674 5675 5676 5678 5679 5680 5681 5683 5684 5686 5687 5688 5690 5691 5693 5695 5696 5697 5698 5699 5700 5701 5702 5703 5704 5705 5706 5707 5707 5708 5708 5709 5710 5710 5711 5712 5712 5713 5713 5714 5714 5715 5715 5716 5717 5718 5719 5719 5720 5721 5722 5722 5723 5723 5724 5724 5725 5725 5726 5727 5728 5728 5728 5728 5728 5729 5729 5730 5730 5730 5731 5731 5730 5730 5729
5655 5656 5657 5658 5659 5660 5663 5664 5666 5666 5667 5669 5670 5671 5673 5674 5676 5677 5679 5680 5682 5683 5685 5686 5688 5689 5691 5692 5693 5695 5696 5697 5698 5699 5700 5701 5702 5703 5704 5704 5705 5705 5706 5706 5707 5708 5708 5709 5709 5710 5710 5710 5711 5712 5712 5713 5714 5715 5716 5716 5717 5718 5719 5719 5719 5720 5720 5721 5721 5722 5723 5723 5724 5724 5724 5725 5725 5725 5726 5726 5727 5727 5727 5727 5726 5726
5652 5653 5655 5656 5656 5657 5658 5660 5660 5661 5663 5664 5666 5668 5669 5671 5672 5674 5675 5676 5678 5679 5680 5682 5684 5685 5687 5688 5690 5691 5692 5693 5694 5695 5696 5697 5698 5699 5700 5701 5701 5702 5702 5703 5703 5704 5704 5705 5705 5705 5706 5706 5707 5707 5708 5709 5710 5711 5711 5712 5713 5714 5714 5715 5715 5716 5716 5717 5717 5718 5718 5719 5719 5720 5720 5720 5720 5720 5721 5721 5722 5722 5722 5722 5722 5722
5649 5650 5651 5652 5653 5654 5655 5656 5657 5657 5659 5661 5662 5664 5665 5666 5667 5669 5670 5672 5673 5675 5676 5678 5679 5681 5682 5684 5686 5687 5688 5689 5690 5691 5692 5693 5694 5695 5696 5697 5697 5698 5698 5699 5700 5700 5700 5701 5701 5701 5702 5702 5702 5702 5703 5703 5704 5705 5706 5707 5708 5709 5709 5710 5711 5711 5712 5712 5713 5713 5713 5714 5714 5714 5714 5715 5715 5715 5715 5716 5716 5717 5717 5717 5717 5717
5644 5646 5648 5649 5649 5650 5651 5652 5653 5654 5655 5657 5658 5660 5661 5662 5663 5664 5666 5667 5668 5670 5672 5673 5675 5676 5678 5679 5681 5683 5684 5685 5686 5687 5687 5688 5689 5690 5691 5692 5693 5693 5694 5695 5695 5696 5696 5697 5697 5697 5697 5697 5698 5698 5698 5699 5699 5700 5701 5702 5702 5703 5703 5704 5705 5706 5706 5706 5707 5707 5708 5708 5708 5708 5708 5709 5709 5709 5710 5710 5710 5711 5711 5712 5712 5712
5640 5641 5643 5644 5645 5646 5647 5648 5649 5650 5651 5653 5655 5656 5657 5658 5659 5660 5661 5663 5664 5666 5668 5669 5670 5672 5673 5674 5676 5677 5678 5680 5681 5682 5683 5684 5684 5685 5686 5686 5687 5688 5689 5690 5690 5690 5691 5692 5692 5693 5693 5693 5693 5693 5693 5693 5693 5694 5695 5696 5696 5697 5697 5697 5698 5699 5699 5700 5700 5701 5701 5702 5702 5702 5702 5702 5703 5703 5704 5704 5704 5705 5705 5706 5706 5707
5636 5637 5639 5640 5641 5642 5643 5644 5645 5646 5648 5650 5651 5652 5653 5654 5655 5656 5657 5658 5660 5662 5663 5664 5666 5667 5668 5669 5670 5671 5672 5674 5675 5676 5678 5679 5680 5681 5681 5682 5683 5684 5684 5685 5685 5685 5686 5686 5687 5687 5687 5687 5687 5687 5687 5687 5687 5688 5688 5689 5690 5690 5690 5691 5691 5692 5692 5693 5693 5694 5694 5695 5695 5695 5695 5696 5696 5697 5697 5698 5698 5698 5699 5700 5701 5701
5633 5633 5634 5635 5636 5637 5639 5640 5641 5642 5644 5646 5647 5648 5650 5651 5651 5652 5653 5654 5655 5657 5658 5660 5661 5662 5663 5664 5665 5665 5666 5668 5669 5671 5672 5674 5675 5676 5676 5677 5678 5678 5678 5679 5679 5679 5680 5680 5681 5681 5681 5681 5680 5680 5680 5680 5681 5681 5681 5682 5683 5684 5684 5685 5685 5685 5686 5686 5686 5687 5687 5688 5688 5688 5688 5689 5689 5690 5690 5691 5691 5691 5692 5693 5694 5695
5629 5629 5630 5630 5631 5632 5633 5635 5637 5639 5641 5642 5643 5644 5645 5646 5647 5648 5649 5650 5651 5652 5654 5655 5656 5658 5659 5659 5660 5661 5661 5663 5664 5665 5667 5667 5668 5669 5670 5670 5671 5671 5672 5672 5672 5672 5673 5673 5674 5674 5674 5674 5673 5673 5673 5674 5674 5674 5675 5675 5676 5677 5678 5678 5678 5679 5679 5679 5680 5680 5680 5681 5681 5681 5681 5681 5682 5682 5683 5684 5684 5684 5685 5686 5687 5688
5624 5625 5626 5626 5627 5627 5628 5630 5632 5634 5635 5637 5638 5640 5641 5642 5642 5643 5644 5645 5646 5647 5648 5650 5651 5652 5653 5654 5655 5656 5656 5658 5658 5659 5660 5660 5661 5662 5662 5663 5663 5664 5664 5665 5665 5665 5665 5666 5666 5666 5666 5666 5666 5666 5666 5666 5667 5667 5667 5668 5669 5670 5671 5672 5672 5672 5672 5673 5673 5673 5674 5674 5674 5674 5674 5674 5674 5675 5675 5676 5676 5677 5677 5678 5680 5681
5620 5620 5621 5622 5623 5623 5624 5625 5627 5628 5630 5633 5634 5635 5636 5637 5637 5638 5639 5639 5640 5641 5642 5644 5645 5646 5647 5648 5649 5650 5651 5652 5652 5653 5654 5654 5655 5655 5655 5656 5656 5656 5657 5657 5657 5658 5658 5658 5658 5658 5658 5658 5658 5658 5658 5658 5659 5659 5660 5661 5661 5662 5663 5664 5665 5665 5666 5666 5666 5666 5666 5667 5667 5667 5667 5667 5667 5668 5668 5668 5669 5670 5670 5672 5673 5674
5615 5616 5617 5618 5618 5620 5620 5620 5622 5623 5625 5627 5629 5630 5631 5632 5633 5633 5634 5635 5636 5637 5637 5638 5639 5640 5641 5642 5643 5644 5645 5645 5646 5647 5648 5648 5648 5649 5649 5649 5649 5650 5650 5650 5650 5650 5651 5651 5651 5651 5651 5650 5650 5650 5651 5651 5651 5651 5652 5653 5653 5654 5655 5655 5656 5657 5658 5658 5658 5659 5659 5659 5659 5660 5660 5660 5661 5661 5662 5662 5663 5663 5664 5665 5666 5667
5610 5612 5613 5613 5613 5615 5615 5616 5617 5618 5620 5621 5623 5624 5625 5626 5627 5628 5629 5631 5633 5633 5632 5633 5633 5634 5635 5636 5636 5637 5638 5639 5640 5640 5641 5641 5642 5642 5642 5643 5643 5643 5643 5643 5644 5644 5644 5644 5644 5643 5643 5643 5642 5642 5643 5643 5643 5643 5643 5644 5644 5644 5645 5646 5647 5648 5649 5650 5650 5651 5651 5651 5651 5652 5653 5653 5654 5655 5656 5656 5657 5657 5658 5659 5660 5661
5605 5607 5608 5608 5609 5610 5611 5611 5612 5614 5614 5616 5617 5618 5619 5620 5621 5622 5624 5626 5627 5626 5627 5628 5628 5628 5629 5630 5631 5631 5631 5632 5633 5634 5634 5634 5635 5635 5635 5636 5636 5636 5637 5637 5637 5637 5637 5637 5636 5636 5635 5635 5634 5634 5634 5634 5635 5634 5634 5635 5635 5634 5635 5637 5638 5638 5639 5641 5641 5642 5643 5643 5643 5644 5644 5645 5647 5648 5649 5650 5650 5651 5652 5652 5653 5654
5600 5601 5602 5603 5604 5605 5606 5606 5607 5608 5610 5611 5612 5613 5614 5614 5615 5617 5619 5620 5620 5620 5621 5621 5622 5623 5623 5624 5624 5624 5625 5626 5626 5627 5627 5627 5627 5627 5628 5628 5628 5629 5629 5629 5630 5630 5630 5629 5629 5628 5627 5626 5626 5626 5626 5626 5626 5626 5626 5626 5626 5625 5626 5627 5628 5629 5630 5631 5631 5632 5633 5634 5635 5635 5636 5637 5638 5640 5642 5643 5644 5645 5645 5646 5646 5647
5594 5595 5596 5597 5598 5599 5600 5601 5602 5603 5605 5606 5607 5607 5607 5608 5609 5611 5612 5612 5613 5614 5615 5615 5616 5616 5617 5617 5617 5618 5618 5619 5619 5619 5620 5620 5619 5619 5619 5620 5620 5620 5620 5621 5621 5621 5621 5621 5620 5619 5619 5618 5617 5617 5616 5616 5617 5617 5617 5618 5617 5616 5616 5617 5618 5619 5620 5621 5622 5623 5623 5624 5625 5626 5628 5628 5629 5631 5633 5635 5636 5637 5638 5639 5640 5640
5587 5589 5589 5591 5592 5593 5594 5594 5596 5598 5599 5600 5600 5601 5601 5602 5603 5604 5605 5605 5606 5607 5608 5609 5609 5610 5610 5610 5611 5611 5611 5612 5612 5612 5612 5612 5612 5611 5611 5611 5611 5611 5612 5612 5612 5612 5612 5612 5611 5611 5610 5609 5608 5607 5606 5606 5606 5607 5608 5608 5607 5606 5607 5608 5608 5609 5611 5612 5612 5613 5614 5615 5616 5617 5618 5619 5620 5622 5623 5625 5627 5628 5630 5631 5632 5633
5581 5582 5583 5584 5586 5587 5587 5588 5590 5592 5593 5593 5594 5595 5595 5596 5597 5598 5598 5599 5599 5600 5601 5602 5602 5603 5603 5603 5603 5604 5604 5604 5604 5604 5604 5604 5604 5603 5603 5603 5603 5604 5604 5604 5603 5603 5603 5602 5602 5601 5600 5599 5598 5597 5596 5596 5596 5597 5597 5597 5597 5597 5597 5598 5598 5599 5601 5602 5603 5604 5605 5606 5607 5608 5609 5610 5611 5613 5614 5616 5618 5620 5622 5624 5625 5626
5576 5577 5578 5579 5580 5581 5581 5582 5584 5585 5586 5587 5588 5588 5589 5590 5591 5591 5592 5593 5593 5594 5594 5595 5595 5596 5596 5596 5597 5597 5597 5597 5597 5597 5597 5597 5596 5596 5596 5596 5596 5596 5596 5596 5595 5594 5594 5593 5593 5592 5592 5591 5589 5588 5587 5586 5586 5586 5587 5587 5586 5586 5586 5587 5588 5589 5590 5591 5592 5593 5595 5596 5598 5599 5600 5601 5602 5603 5605 5607 5609 5612 5616 5619 5620 5619
5571 5572 5573 5574 5574 5575 5576 5577 5578 5579 5580 5581 5582 5582 5583 5584 5584 5585 5586 5586 5587 5588 5588 5588 5589 5589 5589 5590 5590 5590 5590 5590 5590 5590 5590 5589 5589 5589 5589 5589 5589 5589 5588 5587 5586 5585 5585 5584 5584 5583 5583 5582 5580 5579 5577 5576 5576 5576 5576 5576 5575 5575 5575 5575 5576 5578 5579 5579 5580 5581 5583 5585 5588 5589 5590 5591 5592 5594 5596 5598 5601 5604 5608 5611 5612 5611
5567 5568 5569 5569 5570 5571 5571 5572 5573 5574 5575 5576 5577 5577 5578 5578 5579 5579 5580 5581 5581 5582 5582 5583 5583 5583 5584 5584 5584 5584 5584 5584 5584 5584 5583 5582 5582 5582 5582 5582 5581 5581 5579 5578 5577 5576 5576 5575 5575 5574 5573 5572 5571 5569 5568 5566 5565 5564 5564 5564 5564 5564 5564 5564 5565 5566 5567 5568 5568 5569 5571 5572 5575 5577 5579 5581 5582 5584 5586 5588 5590 5594 5597 5599 5602 5604
5564 5564 5565 5565 5566 5566 5567 5568 5569 5569 5570 5571 5572 5572 5573 5574 5574 5575 5576 5576 5577 5577 5577 5578 5578 5578 5579 5579 5579 5579 5579 5578 5578 5579 5578 5577 5577 5577 5576 5576 5575 5573 5571 5570 5569 5568 5567 5566 5566 5565 5564 5562 5561 5560 5559 5557 5555 5554 5553 5553 5553 5552 5553 5553 5553 5554 5556 5556 5557 5558 5559 5559 5561 5563 5566 5568 5571 5574 5576 5578 5580 5583 5586 5589 5592 5594
5561 5561 5562 5562 5562 5563 5563 5564 5565 5565 5565 5566 5567 5568 5568 5569 5570 5570 5571 5572 5572 5572 5573 5573 5573 5574 5574 5574 5573 5574 5573 5573 5573 5573 5572 5571 5571 5570 5570 5569 5567 5565 5564 5563 5562 5561 5559 5558 5557 5556 5555 5553 5552 5551 5549 5548 5546 5544 5543 5542 5542 5541 5542 5542 5542 5543 5544 5544 5545 5546 5546 5547 5549 5550 5552 5555 5558 5562 5565 5568 5570 5572 5575 5579 5582 5584
5559 5559 5559 5559 5560 5560 5560 5561 5561 5562 5562 5563 5563 5564 5564 5564 5565 5565 5566 5566 5567 5567 5567 5567 5567 5567 5567 5567 5567 5567 5567 5566 5566 5566 5566 5564 5563 5563 5562 5561 5560 5559 5557 5556 5555 5554 5552 5551 5550 5548 5546 5544 5543 5541 5540 5539 5537 5535 5534 5533 5532 5531 5530 5530 5530 5531 5531 5531 5532 5534 5534 5534 5536 5538 5540 5542 5545 5548 5552 5556 5559 5563 5566 5569 5571 5573